This demonstration page uses our WeatherBlox Daily Observations layout. Learn more.

Left ArrowRight Arrow

38.20091, -84.87328

Hourly Observations for April 23, 2016

Temp ( °F °C ) Dew Point ( °F °C ) Humidity (%) Winds ( mph kmh ) Pressure ( in mb ) Visibility ( mi km ) Precip ( " mm )
12:53 am 00:53 Partly Cloudy 52 11.1 49 9.4 89 89 W 3 6 29.99 1016 10 16 0.00 0.00
1:53 am 01:53 Mostly Cloudy 53 11.7 49 9.4 86 86 NW 3 6 30.00 1016 10 16 0.00 0.00
2:22 am 02:22 Mostly Cloudy 54 12.2 50 10 87 87 NNW 6 9 30.00 1016 10 16 0.00 0.00
2:42 am 02:42 Partly Cloudy 55 12.8 50 10 83 83 NNW 3 6 30.00 1016 10 16 0.00 0.00
2:53 am 02:53 Mostly Clear 55 12.8 50 10 83 83 NNW 3 6 30.00 1016 10 16 0.00 0.00
3:33 am 03:33 Mostly Cloudy 54 12.2 50 10 87 87 NNW 6 9 30.00 1016 10 16 0.00 0.00
3:53 am 03:53 Partly Cloudy 55 12.8 51 10.6 87 87 N 6 9 30.01 1016 10 16 0.00 0.00
4:16 am 04:16 Mostly Cloudy 56 13.3 51 10.6 84 84 N 5 7 30.03 1017 9 14 0.00 0.00
4:53 am 04:53 Cloudy 56 13.3 52 11.1 87 87 N 6 9 30.02 1017 9 14 0.00 0.00
5:05 am 05:05 Cloudy 56 13.3 51 10.6 84 84 N 5 7 30.03 1017 9 14 0.00 0.00
5:18 am 05:18 Cloudy 56 13.3 51 10.6 84 84 N 6 9 30.03 1017 9 14 0.00 0.00
5:53 am 05:53 Mostly Clear 55 12.8 50 10 83 83 N 5 7 30.02 1017 7 11 0.00 0.00
6:53 am 06:53 Sunny 54 12.2 48 8.9 80 80 N 5 7 30.05 1018 7 11 0.00 0.00
7:53 am 07:53 Hazy 54 12.2 48 8.9 80 80 NNE 5 7 30.07 1018 6 10 0.00 0.00
8:53 am 08:53 Sunny 56 13.3 46 7.8 70 70 N 12 19 30.09 1019 10 16 0.00 0.00
9:53 am 09:53 Mostly Sunny 57 13.9 46 7.8 67 67 NNE 10 17 30.11 1020 10 16 0.00 0.00
10:25 am 10:25 Mostly Cloudy 58 14.4 46 7.8 65 65 NNE 12 19 30.12 1020 10 16 0.00 0.00
10:53 am 10:53 Mostly Cloudy 58 14.4 46 7.8 65 65 NNE 12 19 30.11 1020 10 16 0.00 0.00
11:53 am 11:53 Cloudy 58 14.4 46 7.8 65 65 N 9 15 30.13 1020 10 16 0.00 0.00
12:53 pm 12:53 Mostly Cloudy 59 15 47 8.3 64 64 NNE 6 9 30.12 1020 10 16 0.00 0.00
1:22 pm 13:22 Mostly Sunny 61 16.1 47 8.3 60 60 NNE 8 13 30.12 1020 10 16 0.00 0.00
1:53 pm 13:53 Sunny 62 16.7 46 7.8 56 56 NNE 9 15 30.11 1020 10 16 0.00 0.00
2:53 pm 14:53 Sunny 65 18.3 48 8.9 54 54 E 6 9 30.09 1019 10 16 0.00 0.00
3:53 pm 15:53 Mostly Sunny 67 19.4 48 8.9 51 51 Calm 30.08 1019 10 16 0.00 0.00
4:53 pm 16:53 Mostly Sunny 68 20 46 7.8 45 45 NNW 5 7 30.05 1018 10 16 0.00 0.00
5:53 pm 17:53 Mostly Cloudy 70 21.1 45 7.2 41 41 Calm 30.04 1017 10 16 0.00 0.00
6:53 pm 18:53 Partly Cloudy 69 20.6 44 6.7 41 41 Calm 30.04 1017 10 16 0.00 0.00
7:53 pm 19:53 Sunny 68 20 44 6.7 42 42 N 5 7 30.04 1017 10 16 0.00 0.00
8:53 pm 20:53 Clear 61 16.1 45 7.2 56 56 Calm 30.04 1017 10 16 0.00 0.00
9:53 pm 21:53 Clear 57 13.9 46 7.8 67 67 Calm 30.06 1018 10 16 0.00 0.00
10:53 pm 22:53 Clear 54 12.2 46 7.8 75 75 Calm 30.05 1018 10 16 0.00 0.00
11:53 pm 23:53 Clear 55 12.8 45 7.2 69 69 E 5 7 30.05 1018 10 16 0.00 0.00

Powered by AerisWeather